KA7EII-13 Weather Reports


time (UTC)temp
F
wind
direction
speed
knots
gust
knots
rain 1hr
in
rain 24hr
in
rain mn
in
humidity
%
barometer
mb
20260505004512 69 302 0.9 2.6 0.00 0.00 0.00 33 1095.9
20260505004008 69 2 1.7 2.6 0.00 0.00 0.00 33 1095.9
20260505003506 69 339 4.3 6.1 0.00 0.00 0.00 32 1095.7
20260505003003 69 18 4.3 6.1 0.00 0.00 0.00 33 1095.8
20260505002458 69 343 3.5 8.7 0.00 0.00 0.00 32 1095.3
20260505001957 69 53 3.5 5.2 0.00 0.00 0.00 32 1095.5
20260505001454 69 163 3.5 8.7 0.00 0.00 0.00 33 1095.5
20260505000950 69 68 3.5 9.6 0.00 0.00 0.00 33 1095.5
20260505000449 70 72 4.3 8.7 0.00 0.00 0.00 32 1095.1
20260504235945 71 349 6.1 11.3 0.00 0.00 0.00 31 1095.2
20260504235442 71 342 6.1 8.7 0.00 0.00 0.00 29 1095.0
20260504234939 73 62 2.6 7.0 0.00 0.00 0.00 28 1094.9
20260504234436 72 24 1.7 4.3 0.00 0.00 0.00 25 1094.6
20260504233932 73 343 2.6 4.3 0.00 0.00 0.00 26 1094.6
20260504233428 73 357 2.6 2.6 0.00 0.00 0.00 25 1094.7
20260504232925 73 44 1.7 4.3 0.00 0.00 0.00 25 1094.6
20260504232422 75 55 2.6 4.3 0.00 0.00 0.00 24 1094.9
20260504231919 75 330 2.6 7.0 0.00 0.00 0.00 24 1094.7
20260504231416 76 217 0.9 0.9 0.00 0.00 0.00 25 1094.7
20260504230912 74 162 1.7 7.0 0.00 0.00 0.00 26 1095.0
20260504230409 75 8 4.3 7.8 0.00 0.00 0.00 24 1094.9
20260504225908 75 2 4.3 7.0 0.00 0.00 0.00 23 1095.2
20260504225404 76 13 0.9 4.3 0.00 0.00 0.00 23 1095.2
20260504224902 75 176 1.7 2.6 0.00 0.00 0.00 27 1095.1
20260504224358 75 2 1.7 4.3 0.00 0.00 0.00 24 1095.3
20260504223855 75 279 4.3 7.8 0.00 0.00 0.00 25 1095.2
20260504223350 76 132 1.7 7.0 0.00 0.00 0.00 26 1095.1
20260504222847 76 47 0.9 4.3 0.00 0.00 0.00 25 1095.2
20260504222344 76 29 2.6 4.3 0.00 0.00 0.00 25 1095.5
20260504221843 77 4 1.7 5.2 0.00 0.00 0.00 24 1095.3
20260504221339 77 175 1.7 6.1 0.00 0.00 0.00 25 1095.5
20260504220836 76 237 2.6 4.3 0.00 0.00 0.00 25 1095.4
20260504220333 76 300 2.6 4.3 0.00 0.00 0.00 24 1095.4
20260504215830 75 350 1.7 6.1 0.00 0.00 0.00 24 1095.8
20260504215326 76 254 3.5 7.0 0.00 0.00 0.00 25 1095.7
20260504214822 77 243 1.7 4.3 0.00 0.00 0.00 25 1095.7
20260504214320 75 198 0.9 0.9 0.00 0.00 0.00 27 1095.9
20260504213816 74 312 2.6 5.2 0.00 0.00 0.00 26 1096.1
20260504213312 73 277 2.6 7.0 0.00 0.00 0.00 26 1096.1
20260504212810 75 330 2.6 7.0 0.00 0.00 0.00 27 1096.3
20260504212306 75 313 3.5 8.7 0.00 0.00 0.00 26 1096.1
20260504211804 76 29 2.6 5.2 0.00 0.00 0.00 25 1096.3
20260504211259 76 257 2.6 5.2 0.00 0.00 0.00 26 1096.3
20260504210757 75 14 0.9 4.3 0.00 0.00 0.00 27 1096.2
20260504210254 75 279 1.7 2.6 0.00 0.00 0.00 26 1096.2
20260504205751 74 329 2.6 5.2 0.00 0.00 0.00 26 1096.6
20260504205249 75 237 2.6 5.2 0.00 0.00 0.00 26 1096.6
20260504204747 75 287 1.7 5.2 0.00 0.00 0.00 26 1096.5
20260504204245 74 226 1.7 4.3 0.00 0.00 0.00 29 1096.7
20260504203744 74 220 1.7 2.6 0.00 0.00 0.00 28 1096.8
20260504203241 73 5 0.9 2.6 0.00 0.00 0.00 25 1096.9
20260504202741 74 351 1.7 2.6 0.00 0.00 0.00 26 1097.0
20260504202238 74 239 1.7 2.6 0.00 0.00 0.00 28 1096.9
20260504201735 72 0 0.9 2.6 0.00 0.00 0.00 28 1097.3
20260504201232 73 250 1.7 2.6 0.00 0.00 0.00 27 1096.6
20260504200730 74 294 0.9 4.3 0.00 0.00 0.00 29 1097.0
20260504200226 73 312 3.5 5.2 0.00 0.00 0.00 29 1097.4
20260504195722 73 315 2.6 5.2 0.00 0.00 0.00 30 1097.3
20260504195218 74 254 0.9 1.7 0.00 0.00 0.00 29 1097.4
20260504194716 73 134 1.7 4.3 0.00 0.00 0.00 30 1097.4
20260504194212 73 200 0.9 4.3 0.00 0.00 0.00 31 1097.6
20260504193708 73 301 0.0 4.3 0.00 0.00 0.00 31 1097.6
20260504193206 72 226 1.7 5.2 0.00 0.00 0.00 29 1097.4
20260504192704 72 231 0.9 5.2 0.00 0.00 0.00 31 1097.7
20260504192201 72 186 0.9 1.7 0.00 0.00 0.00 34 1097.7
20260504191700 72 236 0.9 1.7 0.00 0.00 0.00 32 1097.8
20260504191156 72 240 1.7 4.3 0.00 0.00 0.00 31 1098.0
20260504190652 71 233 0.9 5.2 0.00 0.00 0.00 32 1098.1
20260504190148 72 222 0.9 2.6 0.00 0.00 0.00 32 1098.2
20260504185645 71 264 3.5 6.1 0.00 0.00 0.00 33 1098.2
20260504185142 71 225 3.5 6.1 0.00 0.00 0.00 31 1098.1
20260504184638 71 207 0.9 4.3 0.00 0.00 0.00 35 1098.2
20260504184133 71 212 0.9 1.7 0.00 0.00 0.00 31 1098.3
20260504183630 71 27 4.3 6.1 0.00 0.00 0.00 32 1098.5
20260504183128 71 150 2.6 2.6 0.00 0.00 0.00 34 1098.6
20260504182625 71 171 0.0 0.9 0.00 0.00 0.00 36 1098.5
20260504182123 71 197 2.6 2.6 0.00 0.00 0.00 33 1098.2
20260504181620 70 182 0.9 4.3 0.00 0.00 0.00 32 1098.5
20260504181117 70 317 0.9 2.6 0.00 0.00 0.00 31 1098.4
20260504180616 69 294 1.7 4.3 0.00 0.00 0.00 33 1098.8
20260504180115 70 323 4.3 6.1 0.00 0.00 0.00 34 1098.3
20260504175612 69 359 1.7 4.3 0.00 0.00 0.00 35 1098.6
20260504175108 69 11 3.5 5.2 0.00 0.00 0.00 35 1098.6
20260504174607 69 231 0.9 2.6 0.00 0.00 0.00 39 1099.0
20260504174102 69 167 0.9 1.7 0.00 0.00 0.00 36 1098.8
20260504173559 68 188 1.7 1.7 0.00 0.00 0.00 37 1098.9
20260504173057 69 230 0.9 1.7 0.00 0.00 0.00 35 1099.0
20260504172553 68 177 0.9 2.6 0.00 0.00 0.00 36 1098.8
20260504172050 68 216 0.0 2.6 0.00 0.00 0.00 36 1098.9
20260504171547 67 153 0.9 2.6 0.00 0.00 0.00 39 1099.0
20260504171044 68 208 0.0 2.6 0.00 0.00 0.00 38 1098.8
20260504170539 68 208 0.0 1.7 0.00 0.00 0.00 33 1098.8
20260504150923 60 225 0.0 0.9 0.00 0.00 0.00 44 1099.1
20260504150420 59 308 0.9 0.9 0.00 0.00 0.00 45 1099.1
20260504140847 46 231 0.0 0.9 0.00 0.00 0.00 66 1099.2
20260504140343 46 232 0.9 0.9 0.00 0.00 0.00 68 1099.4
20260504130811 39 253 0.0 0.0 0.00 0.00 0.00 83 1098.9
20260504130307 39 253 0.0 0.0 0.00 0.00 0.00 86 1099.1
20260504120231 40 261 0.0 0.0 0.00 0.00 0.00 87 1099.0
20260504110658 41 271 0.0 0.0 0.00 0.00 0.00 79 1099.2
20260504110155 40 271 0.0 0.0 0.00 0.00 0.00 78 1098.9
20260504100119 42 284 0.0 0.9 0.00 0.00 0.00 73 1098.6
20260504081512 49 316 0.0 0.9 0.00 0.00 0.00 55 1098.9
20260504081007 50 336 0.9 1.7 0.00 0.00 0.00 54 1098.8
20260504080504 50 331 0.9 1.7 0.00 0.00 0.00 54 1098.8
20260504050317 54 208 0.0 0.0 0.00 0.00 0.00 49 1099.2
20260504045814 54 218 0.0 0.9 0.00 0.00 0.00 49 1099.4
20260504045309 55 230 0.9 0.9 0.00 0.00 0.00 47 1099.4
20260504044806 55 208 0.0 0.9 0.00 0.00 0.00 47 1099.4
20260504044304 55 189 0.0 0.9 0.00 0.00 0.00 46 1099.2
20260504043801 56 188 0.0 0.0 0.00 0.00 0.00 44 1099.3
20260504043258 57 188 0.0 0.9 0.00 0.00 0.00 42 1099.3
20260504042755 57 188 0.0 0.0 0.00 0.00 0.00 42 1099.3
20260504042251 57 188 0.0 0.9 0.00 0.00 0.00 42 1099.2
20260504041747 57 189 0.0 0.9 0.00 0.00 0.00 42 1099.1
20260504041243 57 188 0.0 0.9 0.00 0.00 0.00 42 1099.1
20260504040739 56 190 0.0 0.9 0.00 0.00 0.00 43 1099.3
20260504040238 56 190 0.0 0.9 0.00 0.00 0.00 44 1099.2
20260504035733 56 190 0.0 0.0 0.00 0.00 0.00 45 1099.4
20260504035231 55 190 0.0 0.0 0.00 0.00 0.00 45 1099.3
20260504034729 56 190 0.0 0.0 0.00 0.00 0.00 46 1099.2
20260504034226 57 189 0.0 0.0 0.00 0.00 0.00 43 1099.2
20260504033723 57 189 0.0 0.0 0.00 0.00 0.00 43 1099.2
20260504033221 58 190 0.0 0.9 0.00 0.00 0.00 42 1099.2
20260504032717 59 190 0.0 0.9 0.00 0.00 0.00 41 1099.1
20260504032214 59 189 0.9 0.9 0.00 0.00 0.00 41 1099.1
20260504031710 59 189 0.9 0.9 0.00 0.00 0.00 41 1099.1
20260504031208 60 190 0.0 0.9 0.00 0.00 0.00 41 1099.1
20260504030703 60 190 0.0 0.9 0.00 0.00 0.00 40 1099.0
20260504030201 61 190 0.0 0.9 0.00 0.00 0.00 39 1099.2
20260504025658 62 191 0.0 0.9 0.00 0.00 0.00 37 1099.0
20260504025154 61 192 0.9 0.9 0.00 0.00 0.00 37 1099.1
20260504024651 60 197 0.0 0.0 0.00 0.00 0.00 38 1099.0
20260504024148 61 197 0.0 0.0 0.00 0.00 0.00 38 1098.8
20260504023645 62 197 0.0 0.0 0.00 0.00 0.00 40 1099.0
20260504023141 63 197 0.0 0.0 0.00 0.00 0.00 36 1099.0
20260504022637 64 197 0.0 0.0 0.00 0.00 0.00 35 1099.0
20260504022133 64 197 0.0 0.0 0.00 0.00 0.00 35 1098.9
20260504021631 65 197 0.0 0.0 0.00 0.00 0.00 34 1098.6
20260504021127 66 198 0.0 0.0 0.00 0.00 0.00 32 1098.9
20260504020625 66 198 0.0 0.0 0.00 0.00 0.00 32 1098.8
20260504020120 67 199 0.0 0.0 0.00 0.00 0.00 29 1098.9
20260504015617 68 199 0.0 0.9 0.00 0.00 0.00 28 1099.0
20260504015114 69 196 0.0 0.0 0.00 0.00 0.00 27 1099.1
20260504014609 70 194 0.0 0.9 0.00 0.00 0.00 25 1099.1
20260504014107 70 202 0.0 0.0 0.00 0.00 0.00 25 1099.2
20260504013604 71 208 0.9 1.7 0.00 0.00 0.00 24 1099.2
20260504013101 71 216 0.9 2.6 0.00 0.00 0.00 24 1099.0
20260504012558 71 245 0.9 1.7 0.00 0.00 0.00 23 1099.0
20260504012056 71 171 0.0 1.7 0.00 0.00 0.00 23 1099.1
20260504011553 72 211 0.9 1.7 0.00 0.00 0.00 23 1099.3
20260504011049 72 182 0.0 0.9 0.00 0.00 0.00 23 1099.2
20260504010544 72 162 0.0 1.7 0.00 0.00 0.00 23 1099.4
20260504010041 72 204 1.7 1.7 0.00 0.00 0.00 24 1099.4
20260504005538 73 250 2.6 2.6 0.00 0.00 0.00 22 1099.3
20260504005035 75 226 0.9 1.7 0.00 0.00 0.00 22 1099.7